27/03/2009,00:00:10,   0.0,  5.8,  287, +3.6,  79.6,    0.4,   +7.6,   +8.4,  -10.0, +989.73,24
27/03/2009,00:00:30,   0.0,  4.5,  268, +3.6,  79.3,    0.4,   +7.4,   +8.5,  -10.0, +989.74,1E
27/03/2009,00:00:50,   0.0,  5.4,  254, +3.7,  79.3,    0.3,   +7.6,   +8.4,  -10.0, +989.68,1F
27/03/2009,00:01:10,   0.0,  3.7,  258, +3.6,  79.4,    0.4,   +7.4,   +8.5,  -10.0, +989.63,1C
27/03/2009,00:01:30,   0.0,  3.3,  260, +3.6,  79.4,    0.4,   +7.5,   +8.4,  -10.0, +989.74,15
27/03/2009,00:01:50,   0.0,  3.4,  235, +3.7,  79.3,    0.4,   +7.6,   +8.4,  -10.0, +989.70,17
27/03/2009,00:02:10,   0.0,  5.8,  279, +3.7,  79.3,    0.4,   +7.4,   +8.5,  -10.0, +989.68,28
27/03/2009,00:02:30,   0.0,  8.2,  276, +3.7,  79.3,    0.4,   +7.4,   +8.5,  -10.0, +989.67,23
27/03/2009,00:02:50,   0.0,  7.4,  298, +3.7,  79.0,    0.4,   +7.6,   +8.4,  -10.0, +989.80,23
27/03/2009,00:03:10,   0.0,  6.2,  301, +3.7,  78.8,    0.3,   +7.5,   +8.5,  -10.0, +989.59,1A
27/03/2009,00:03:30,   0.0,  5.3,  249, +3.7,  78.9,    0.4,   +7.4,   +8.5,  -10.0, +989.76,27
27/03/2009,00:03:50,   0.0,  4.4,  295, +3.8,  78.9,    0.5,   +7.6,   +8.4,  -10.0, +989.76,2D
27/03/2009,00:04:10,   0.0,  4.9,  257, +3.7,  78.7,    0.4,   +7.6,   +8.4,  -10.0, +989.69,2B
27/03/2009,00:04:30,   0.0,  5.6,  260, +3.8,  78.8,    0.4,   +7.5,   +8.5,  -10.0, +989.70,1F
27/03/2009,00:04:50,   0.0,  5.2,  249, +3.8,  78.7,    0.4,   +7.5,   +8.5,  -10.0, +989.71,24
27/03/2009,00:05:10,   0.0,  3.7,  308, +3.8,  78.9,    0.4,   +7.5,   +8.5,  -10.0, +989.76,27
27/03/2009,00:05:30,   0.0,  4.7,  276, +3.8,  79.0,    0.2,   +7.7,   +8.4,  -10.0, +989.73,22
27/03/2009,00:05:50,   0.0,  5.0,  279, +3.8,  79.1,    0.3,   +7.6,   +8.4,  -10.0, +989.76,25
27/03/2009,00:06:10,   0.0,  2.3,  287, +3.8,  79.1,    0.5,   +7.6,   +8.4,  -10.0, +989.73,20
27/03/2009,00:06:30,   0.0,  3.7,  290, +3.8,  79.0,    0.2,   +7.5,   +8.5,  -10.0, +989.76,20
27/03/2009,00:06:50,   0.0,  8.6,  285, +3.8,  79.2,    0.3,   +7.6,   +8.4,  -10.0, +989.78,2F
27/03/2009,00:07:10,   0.0,  8.3,  301, +3.8,  78.7,    0.3,   +7.5,   +8.5,  -10.0, +989.76,20
27/03/2009,00:07:30,   0.0,  3.5,  277, +3.8,  78.7,    0.3,   +7.5,   +8.5,  -10.0, +989.76,2B
27/03/2009,00:07:50,   0.0,  2.9,  289, +3.8,  78.7,    0.3,   +7.5,   +8.5,  -10.0, +989.76,33
27/03/2009,00:08:10,   0.0,  5.1,  251, +3.8,  78.7,    0.4,   +7.5,   +8.5,  -10.0, +989.71,1C
27/03/2009,00:08:30,   0.0,  5.9,  289, +3.9,  78.2,    0.4,   +7.4,   +8.5,  -10.0, +989.67,31
27/03/2009,00:08:50,   0.0,  5.8,  277, +3.9,  78.4,    0.4,   +7.5,   +8.5,  -10.0, +989.75,31
27/03/2009,00:09:10,   0.0,  6.0,  278, +3.9,  78.4,    0.4,   +7.5,   +8.4,  -10.0, +989.75,27
27/03/2009,00:09:30,   0.0,  3.7,  251, +3.9,  78.4,    0.3,   +7.6,   +8.4,  -10.0, +989.81,21
27/03/2009,00:09:50,   0.0,  2.2,  273, +3.9,  78.7,    0.3,   +7.6,   +8.4,  -10.0, +989.73,25
27/03/2009,00:10:10,   0.0,  3.6,  280, +4.0,  78.8,    0.3,   +7.5,   +8.5,  -10.0, +989.78,1A
27/03/2009,00:10:30,   0.0,  3.9,  298, +4.0,  78.6,    0.3,   +7.6,   +8.4,  -10.0, +989.75,23
27/03/2009,00:10:50,   0.0,  5.6,  280, +4.0,  78.2,    0.3,   +7.4,   +8.5,  -10.0, +989.76,17
27/03/2009,00:11:10,   0.0,  2.9,  278, +4.0,  78.1,    0.3,   +7.6,   +8.4,  -10.0, +989.72,17
27/03/2009,00:11:30,   0.0,  3.0,  291, +4.0,  78.3,    0.3,   +7.4,   +8.5,  -10.0, +989.75,10
27/03/2009,00:11:50,   0.0,  2.7,  283, +4.0,  78.4,    0.3,   +7.6,   +8.4,  -10.0, +989.71,17
27/03/2009,00:12:10,   0.0,  4.0,  285, +4.0,  78.7,    0.3,   +7.5,   +8.4,  -10.0, +989.70,12
27/03/2009,00:12:30,   0.0,  5.6,  258, +4.0,  78.5,    0.3,   +7.6,   +8.4,  -10.0, +989.76,20
27/03/2009,00:12:50,   0.0,  3.7,  254, +4.0,  78.1,    0.2,   +7.5,   +8.5,  -10.0, +989.71,13
27/03/2009,00:13:10,   0.0,  7.3,  275, +4.0,  78.0,    0.3,   +7.5,   +8.5,  -10.0, +989.77,19
27/03/2009,00:13:30,   0.0,  5.0,  236, +4.0,  77.9,    0.3,   +7.5,   +8.4,  -10.0, +989.76,19
27/03/2009,00:13:50,   0.0,  3.4,  285, +4.0,  78.2,    0.3,   +7.5,   +8.5,  -10.0, +989.73,19
27/03/2009,00:14:10,   0.0,  4.0,  282, +4.0,  78.5,    0.4,   +7.5,   +8.4,  -10.0, +989.78,18
27/03/2009,00:14:30,   0.0,  5.0,  290, +4.0,  78.2,    0.4,   +7.5,   +8.4,  -10.0, +989.78,17
27/03/2009,00:14:50,   0.0,  5.5,  293, +4.1,  78.1,    0.4,   +7.5,   +8.4,  -10.0, +989.74,1D
27/03/2009,00:15:10,   0.0,  3.8,  285, +4.1,  78.2,    0.5,   +7.6,   +8.4,  -10.0, +989.78,23
27/03/2009,00:15:30,   0.0,  4.4,  293, +4.1,  78.1,    0.4,   +7.5,   +8.4,  -10.0, +989.78,1E
27/03/2009,00:15:50,   0.0,  3.4,  277, +4.1,  78.2,    0.4,   +7.5,   +8.4,  -10.0, +989.81,1C
27/03/2009,00:16:10,   0.0,  6.9,  303, +4.0,  78.3,    0.4,   +7.5,   +8.4,  -10.0, +989.73,18
27/03/2009,00:16:30,   0.0,  4.5,  240, +4.1,  77.8,    0.5,   +7.5,   +8.4,  -10.0, +989.76,1D
27/03/2009,00:16:50,   0.0,  3.6,  286, +4.1,  78.1,    0.4,   +7.5,   +8.5,  -10.0, +989.75,22
27/03/2009,00:17:10,   0.0,  2.5,  282, +4.1,  78.3,    0.4,   +7.6,   +8.4,  -10.0, +989.78,1E
27/03/2009,00:17:30,   0.0,  3.4,  291, +4.1,  78.5,    0.7,   +7.6,   +8.4,  -10.0, +989.78,25
27/03/2009,00:17:50,   0.0,  3.8,  279, +4.1,  78.6,    0.4,   +7.4,   +8.5,  -10.0, +989.84,2B
27/03/2009,00:18:10,   0.0,  4.7,  249, +4.1,  78.2,    0.4,   +7.6,   +8.4,  -10.0, +989.76,23
27/03/2009,00:18:30,   0.0,  2.8,  280, +4.1,  78.6,    0.4,   +7.4,   +8.5,  -10.0, +989.75,21
27/03/2009,00:18:50,   0.0,  2.6,  248, +4.1,  78.5,    0.4,   +7.5,   +8.5,  -10.0, +989.75,25
27/03/2009,00:19:10,   0.0,  2.8,  294, +4.1,  78.6,    0.5,   +7.6,   +8.4,  -10.0, +989.76,28
27/03/2009,00:19:30,   0.0,  4.8,  292, +4.1,  78.0,    0.4,   +7.5,   +8.5,  -10.0, +989.77,24
27/03/2009,00:19:50,   0.0,  2.5,  299, +4.1,  78.3,    0.4,   +7.7,   +8.4,  -10.0, +989.76,2B
27/03/2009,00:20:10,   0.0,  3.3,  298, +4.2,  78.4,    0.4,   +7.4,   +8.5,  -10.0, +989.82,1A
27/03/2009,00:20:30,   0.0,  2.8,  272, +4.1,  78.4,    0.5,   +7.4,   +8.5,  -10.0, +989.87,1D
27/03/2009,00:20:50,   0.0,  4.0,  316, +4.2,  78.4,    0.5,   +7.6,   +8.4,  -10.0, +989.83,16
27/03/2009,00:21:10,   0.0,  5.3,  301, +4.2,  78.1,    0.5,   +7.5,   +8.5,  -10.0, +989.77,11
27/03/2009,00:21:30,   0.0,  3.7,  285, +4.2,  78.0,    0.4,   +7.5,   +8.4,  -10.0, +989.79,1F
27/03/2009,00:21:50,   0.0,  5.0,  292, +4.1,  77.8,    0.4,   +7.5,   +8.4,  -10.0, +989.73,1A
27/03/2009,00:22:10,   0.0,  5.6,  279, +4.2,  78.1,    0.5,   +7.7,   +8.3,  -10.0, +989.78,24
27/03/2009,00:22:30,   0.0,  5.7,  296, +4.2,  78.1,    0.5,   +7.6,   +8.4,  -10.0, +989.81,20
27/03/2009,00:22:50,   0.0,  3.0,  291, +4.2,  77.7,    0.4,   +7.6,   +8.4,  -10.0, +989.80,17
27/03/2009,00:23:10,   0.0,  4.2,  287, +4.2,  77.9,    0.4,   +7.6,   +8.4,  -10.0, +989.80,1E
27/03/2009,00:23:30,   0.0,  3.9,  297, +4.2,  77.4,    0.4,   +7.5,   +8.4,  -10.0, +989.79,29
27/03/2009,00:23:50,   0.0,  3.5,  277, +4.2,  77.6,    0.4,   +7.5,   +8.4,  -10.0, +989.79,27
27/03/2009,00:24:10,   0.0,  3.2,  298, +4.2,  78.0,    0.4,   +7.5,   +8.4,  -10.0, +989.79,1F
27/03/2009,00:24:30,   0.0,  5.0,  287, +4.2,  78.0,    0.4,   +7.6,   +8.4,  -10.0, +989.76,1D
27/03/2009,00:24:50,   0.0,  4.3,  298, +4.2,  77.5,    0.4,   +7.5,   +8.4,  -10.0, +989.77,27
27/03/2009,00:25:10,   0.0,  1.5,  284, +4.2,  77.9,    0.4,   +7.6,   +8.4,  -10.0, +989.75,21
27/03/2009,00:25:30,   0.0,  2.3,  272, +4.2,  78.1,    0.4,   +7.5,   +8.4,  -10.0, +989.81,14
27/03/2009,00:25:50,   0.0,  4.2,  314, +4.2,  78.2,    0.5,   +7.5,   +8.4,  -10.0, +989.82,17
27/03/2009,00:26:10,   0.0,  3.4,  283, +4.2,  78.1,    0.4,   +7.6,   +8.4,  -10.0, +989.78,1E
27/03/2009,00:26:30,   0.0,  3.2,  296, +4.2,  78.5,    0.5,   +7.6,   +8.4,  -10.0, +989.82,22
27/03/2009,00:26:50,   0.0,  3.2,  242, +4.2,  78.7,    0.5,   +7.5,   +8.4,  -10.0, +989.79,22
27/03/2009,00:27:10,   0.0,  5.8,  298, +4.2,  78.8,    0.3,   +7.3,   +8.5,  -10.0, +989.81,29
27/03/2009,00:27:30,   0.0,  3.4,  303, +4.2,  78.3,    0.4,   +7.4,   +8.5,  -10.0, +989.73,16
27/03/2009,00:27:50,   0.0,  4.4,  271, +4.2,  78.2,    0.5,   +7.5,   +8.4,  -10.0, +989.76,20
27/03/2009,00:28:10,   0.0,  4.9,  290, +4.2,  78.1,    0.4,   +7.4,   +8.5,  -10.0, +989.77,22
27/03/2009,00:28:30,   0.0,  2.5,  287, +4.2,  78.2,    0.4,   +7.4,   +8.5,  -10.0, +989.76,24
27/03/2009,00:28:50,   0.0,  3.1,  292, +4.2,  78.4,    0.5,   +7.4,   +8.4,  -10.0, +989.76,21
27/03/2009,00:29:10,   0.0,  3.7,  301, +4.2,  78.3,    0.4,   +7.4,   +8.5,  -10.0, +989.66,19
27/03/2009,00:29:30,   0.0,  3.2,  290, +4.2,  77.8,    0.4,   +7.5,   +8.4,  -10.0, +989.67,22
27/03/2009,00:29:50,   0.0,  5.3,  257, +4.2,  77.5,    0.5,   +7.4,   +8.5,  -10.0, +989.68,29
27/03/2009,00:30:10,   0.0,  3.5,  292, +4.2,  77.5,    0.5,   +7.5,   +8.4,  -10.0, +989.65,19
27/03/2009,00:30:30,   0.0,  5.5,  307, +4.2,  77.4,    0.5,   +7.5,   +8.4,  -10.0, +989.73,18
27/03/2009,00:30:50,   0.0,  5.9,  281, +4.2,  77.8,    0.3,   +7.4,   +8.5,  -10.0, +989.67,24
27/03/2009,00:31:10,   0.0,  3.3,  255, +4.2,  77.4,    0.5,   +7.4,   +8.4,  -10.0, +989.66,16
27/03/2009,00:31:30,   0.0,  2.7,  277, +4.2,  77.7,    0.5,   +7.5,   +8.5,  -10.0, +989.70,1F
27/03/2009,00:31:50,   0.0,  3.0,  278, +4.2,  77.9,    0.3,   +7.3,   +8.4,  -10.0, +989.68,20
27/03/2009,00:32:10,   0.0,  5.1,  313, +4.2,  78.0,    0.3,   +7.3,   +8.4,  -10.0, +989.71,08
27/03/2009,00:32:30,   0.0,  3.1,  306, +4.2,  77.3,    0.3,   +7.2,   +8.5,  -10.0, +989.69,13
27/03/2009,00:32:50,   0.0,  3.2,  278, +4.2,  77.1,    0.3,   +7.2,   +8.5,  -10.0, +989.70,14
27/03/2009,00:33:10,   0.0,  3.5,  296, +4.2,  77.4,    0.3,   +7.4,   +8.4,  -10.0, +989.74,1C
27/03/2009,00:33:30,   0.0,  5.2,  283, +4.2,  77.3,    0.3,   +7.3,   +8.4,  -10.0, +989.69,1B
27/03/2009,00:33:50,   0.0,  3.4,  246, +4.2,  77.3,    0.5,   +7.7,   +8.4,  -10.0, +989.68,21
27/03/2009,00:34:10,   0.0,  3.2,  274, +4.2,  77.5,    0.3,   +7.6,   +8.4,  -10.0, +989.71,16
27/03/2009,00:34:30,   0.0,  2.6,  240, +4.2,  77.5,    0.3,   +7.6,   +8.5,  -10.0, +989.66,19
27/03/2009,00:34:50,   0.0,  2.3,  288, +4.2,  77.8,    0.3,   +7.5,   +8.4,  -10.0, +989.69,28
27/03/2009,00:35:10,   0.0,  3.8,  303, +4.2,  77.9,    0.4,   +7.5,   +8.4,  -10.0, +989.63,1B
27/03/2009,00:35:30,   0.0,  5.2,  301, +4.2,  77.8,    0.4,   +7.5,   +8.4,  -10.0, +989.62,15
27/03/2009,00:35:50,   0.0,  3.3,  295, +4.2,  77.4,    0.4,   +7.6,   +8.4,  -10.0, +989.67,24
27/03/2009,00:36:10,   0.0,  2.2,  311, +4.2,  77.7,    0.7,   +7.5,   +8.4,  -10.0, +989.71,14
27/03/2009,00:36:30,   0.0,  5.8,  297, +4.2,  77.3,    0.3,   +7.6,   +8.4,  -10.0, +989.63,26
27/03/2009,00:36:50,   0.0,  2.7,  303, +4.2,  77.3,    0.3,   +7.6,   +8.4,  -10.0, +989.69,1E
27/03/2009,00:37:10,   0.0,  3.3,  289, +4.2,  77.5,    0.3,   +7.6,   +8.4,  -10.0, +989.76,25
27/03/2009,00:37:30,   0.0,  3.7,  288, +4.2,  77.6,    0.3,   +7.4,   +8.5,  -10.0, +989.70,24
27/03/2009,00:37:50,   0.0,  2.5,  316, +4.2,  77.7,    0.3,   +7.5,   +8.4,  -10.0, +989.69,24
27/03/2009,00:38:10,   0.0,  2.4,  268, +4.2,  77.6,    0.3,   +7.5,   +8.4,  -10.0, +989.69,25
27/03/2009,00:38:30,   0.0,  3.1,  263, +4.2,  77.8,    0.3,   +7.4,   +8.5,  -10.0, +989.65,1E
27/03/2009,00:38:50,   0.0,  3.3,  305, +4.2,  77.8,    0.3,   +7.5,   +8.5,  -10.0, +989.69,24
27/03/2009,00:39:10,   0.0,  2.4,  288, +4.1,  77.8,    0.3,   +7.5,   +8.4,  -10.0, +989.69,29
27/03/2009,00:39:30,   0.0,  2.7,  300, +4.2,  77.6,    0.3,   +7.5,   +8.5,  -10.0, +989.69,1F
27/03/2009,00:39:50,   0.0,  3.3,  261, +4.1,  77.8,    0.3,   +7.5,   +8.5,  -10.0, +989.66,22
27/03/2009,00:40:10,   0.0,  3.1,  282, +4.2,  78.0,    0.3,   +7.5,   +8.4,  -10.0, +989.71,0C
27/03/2009,00:40:30,   0.0,  1.6,  240, +4.1,  77.9,    0.3,   +7.6,   +8.4,  -10.0, +989.72,14
27/03/2009,00:40:50,   0.0,  6.2,  294, +4.2,  77.9,    0.3,   +7.6,   +8.4,  -10.0, +989.73,22
27/03/2009,00:41:10,   0.0,  4.9,  295, +4.2,  77.6,    0.4,   +7.5,   +8.5,  -10.0, +989.73,23
27/03/2009,00:41:30,   0.0,  3.6,  273, +4.2,  77.6,    0.4,   +7.5,   +8.4,  -10.0, +989.74,1D
27/03/2009,00:41:50,   0.0,  3.7,  275, +4.2,  77.4,    0.3,   +7.5,   +8.4,  -10.0, +989.62,1C
27/03/2009,00:42:10,   0.0,  2.4,  295, +4.2,  77.3,    0.3,   +7.5,   +8.5,  -10.0, +989.68,1D
27/03/2009,00:42:30,   0.0,  4.8,  298, +4.2,  77.5,    0.3,   +7.5,   +8.5,  -10.0, +989.71,24
27/03/2009,00:42:50,   0.0,  2.7,  292, +4.2,  77.4,    0.4,   +7.5,   +8.5,  -10.0, +989.72,1E
27/03/2009,00:43:10,   0.0,  4.4,  298, +4.2,  77.3,    0.3,   +7.4,   +8.6,  -10.0, +989.70,1C
27/03/2009,00:43:30,   0.0,  4.9,  309, +4.2,  77.1,    0.4,   +7.6,   +8.4,  -10.0, +989.67,21
27/03/2009,00:43:50,   0.0,  2.8,  265, +4.2,  77.3,    0.3,   +7.5,   +8.5,  -10.0, +989.68,23
27/03/2009,00:44:10,   0.0,  3.1,  270, +4.2,  77.4,    0.3,   +7.5,   +8.5,  -10.0, +989.74,14
27/03/2009,00:44:30,   0.0,  6.7,  282, +4.2,  77.3,    0.4,   +7.5,   +8.5,  -10.0, +989.65,22
27/03/2009,00:44:50,   0.0,  7.0,  200, +4.2,  77.0,    0.4,   +7.4,   +8.5,  -10.0, +989.62,0D
27/03/2009,00:45:10,   0.0,  4.2,  282, +4.2,  77.4,    0.3,   +7.5,   +8.4,  -10.0, +989.69,1D
27/03/2009,00:45:30,   0.0,  2.4,  294, +4.2,  77.7,    0.4,   +7.5,   +8.5,  -10.0, +989.70,1F
27/03/2009,00:45:50,   0.0,  3.9,  266, +4.2,  77.6,    0.4,   +7.5,   +8.5,  -10.0, +989.69,2D
27/03/2009,00:46:10,   0.0,  7.2,  283, +4.2,  77.9,    0.3,   +7.6,   +8.4,  -10.0, +989.73,23
27/03/2009,00:46:30,   0.0,  5.4,  286, +4.2,  77.6,    0.3,   +7.6,   +8.4,  -10.0, +989.65,26
27/03/2009,00:46:50,   0.0,  5.1,  256, +4.3,  77.7,    0.4,   +7.5,   +8.4,  -10.0, +989.70,20
27/03/2009,00:47:10,   0.0,  5.1,  302, +4.2,  77.9,    0.4,   +7.5,   +8.4,  -10.0, +989.71,17
27/03/2009,00:47:30,   0.0,  4.2,  279, +4.2,  77.5,    0.4,   +7.5,   +8.4,  -10.0, +989.72,23
27/03/2009,00:47:50,   0.0,  4.4,  294, +4.2,  77.8,    0.4,   +7.5,   +8.4,  -10.0, +989.71,26
27/03/2009,00:48:10,   0.0,  3.1,  296, +4.2,  78.0,    0.4,   +7.6,   +8.4,  -10.0, +989.63,1C
27/03/2009,00:48:30,   0.0,  5.3,  284, +4.2,  77.9,    0.4,   +7.5,   +8.4,  -10.0, +989.66,29
27/03/2009,00:48:50,   0.0,  3.7,  286, +4.2,  77.7,    0.4,   +7.6,   +8.4,  -10.0, +989.63,2B
27/03/2009,00:49:10,   0.0,  3.5,  298, +4.2,  77.9,    0.4,   +7.6,   +8.4,  -10.0, +989.72,2B
27/03/2009,00:49:30,   0.0,  5.5,  297, +4.2,  78.2,    0.4,   +7.6,   +8.4,  -10.0, +989.61,26
27/03/2009,00:49:50,   0.0,  3.9,  303, +4.2,  77.7,    0.4,   +7.5,   +8.4,  -10.0, +989.67,27
27/03/2009,00:50:10,   0.0,  4.7,  284, +4.2,  77.5,    0.4,   +7.5,   +8.4,  -10.0, +989.60,19
27/03/2009,00:50:30,   0.0,  4.2,  311, +4.2,  77.7,    0.4,   +7.4,   +8.5,  -10.0, +989.68,17
27/03/2009,00:50:50,   0.0,  5.4,  286, +4.2,  77.5,    0.5,   +7.6,   +8.4,  -10.0, +989.69,28
27/03/2009,00:51:10,   0.0,  7.2,  294, +4.2,  77.5,    0.4,   +7.6,   +8.3,  -10.0, +989.64,1D
27/03/2009,00:51:30,   0.0,  5.7,  282, +4.2,  77.4,    0.4,   +7.5,   +8.4,  -10.0, +989.58,21
27/03/2009,00:51:50,   0.0,  5.2,  290, +4.2,  77.3,    0.4,   +7.6,   +8.4,  -10.0, +989.62,18
27/03/2009,00:52:10,   0.0,  4.3,  285, +4.2,  77.2,    0.4,   +7.6,   +8.4,  -10.0, +989.62,18
27/03/2009,00:52:30,   0.0,  5.5,  276, +4.2,  77.6,    0.4,   +7.5,   +8.4,  -10.0, +989.63,21
27/03/2009,00:52:50,   0.0,  4.7,  282, +4.2,  77.4,    0.4,   +7.5,   +8.4,  -10.0, +989.65,21
27/03/2009,00:53:10,   0.0,  4.3,  277, +4.2,  77.6,    0.4,   +7.5,   +8.4,  -10.0, +989.66,21
27/03/2009,00:53:30,   0.0,  6.8,  292, +4.2,  77.5,    0.4,   +7.5,   +8.4,  -10.0, +989.70,21
27/03/2009,00:53:50,   0.0,  5.8,  296, +4.2,  77.7,    0.4,   +7.5,   +8.4,  -10.0, +989.57,2D
27/03/2009,00:54:10,   0.0,  4.1,  232, +4.1,  77.4,    0.4,   +7.5,   +8.4,  -10.0, +989.53,10
27/03/2009,00:54:30,   0.0,  2.4,  286, +4.1,  77.6,    0.4,   +7.5,   +8.4,  -10.0, +989.61,1D
27/03/2009,00:54:50,   0.0,  3.1,  283, +4.1,  77.9,    0.4,   +7.5,   +8.5,  -10.0, +989.59,25
27/03/2009,00:55:10,   0.0,  3.3,  263, +4.1,  77.9,    0.4,   +7.5,   +8.4,  -10.0, +989.61,1A
27/03/2009,00:55:30,   0.0,  5.7,  279, +4.1,  78.0,    0.4,   +7.5,   +8.4,  -10.0, +989.64,24
27/03/2009,00:55:50,   0.0,  5.5,  255, +4.1,  78.0,    0.4,   +7.5,   +8.4,  -10.0, +989.63,1D
27/03/2009,00:56:10,   0.0,  6.1,  278, +4.1,  77.9,    0.5,   +7.6,   +8.4,  -10.0, +989.62,25
27/03/2009,00:56:30,   0.0,  4.2,  279, +4.1,  78.0,    0.4,   +7.5,   +8.5,  -10.0, +989.63,1F
27/03/2009,00:56:50,   0.0,  4.0,  255, +4.1,  78.2,    0.4,   +7.6,   +8.3,  -10.0, +989.62,19
27/03/2009,00:57:10,   0.0,  3.6,  278, +4.1,  78.4,    0.4,   +7.2,   +8.5,  -10.0, +989.63,21
27/03/2009,00:57:30,   0.0,  3.7,  305, +4.1,  78.5,    0.4,   +7.5,   +8.3,  -10.0, +989.64,1E
27/03/2009,00:57:50,   0.0,  5.2,  301, +4.1,  78.5,    0.3,   +7.4,   +8.5,  -10.0, +989.50,14
27/03/2009,00:58:10,   0.0,  7.1,  287, +4.1,  78.5,    0.4,   +7.4,   +8.5,  -10.0, +989.60,21
27/03/2009,00:58:30,   0.0,  4.6,  289, +4.1,  78.7,    0.4,   +7.5,   +8.4,  -10.0, +989.52,2A
27/03/2009,00:58:50,   0.0,  4.6,  291, +4.1,  78.9,    0.4,   +7.4,   +8.5,  -10.0, +989.57,2C
27/03/2009,00:59:10,   0.0,  7.8,  286, +4.1,  79.0,    0.3,   +7.4,   +8.5,  -10.0, +989.39,29
27/03/2009,00:59:30,   0.0,  5.2,  282, +4.1,  79.0,    0.4,   +7.4,   +8.5,  -10.0, +989.49,21
27/03/2009,00:59:50,   0.0,  7.1,  285, +4.1,  79.3,    0.4,   +7.5,   +8.4,  -10.0, +989.69,2C
27/03/2009,01:00:10,   0.0,  6.4,  296, +4.0,  79.3,    0.3,   +7.6,   +8.4,  -10.0, +989.47,1A
27/03/2009,01:00:30,   0.0,  6.4,  310, +4.0,  79.4,    0.5,   +7.4,   +8.5,  -10.0, +989.54,0F
27/03/2009,01:00:50,   0.0,  8.8,  285, +4.0,  79.6,    0.4,   +7.4,   +8.4,  -10.0, +989.59,27
27/03/2009,01:01:10,   0.0,  5.5,  278, +4.0,  79.6,    0.3,   +7.4,   +8.3,  -10.0, +989.49,1D
27/03/2009,01:01:30,   0.0,  8.5,  287, +4.0,  79.7,    0.4,   +7.4,   +8.4,  -10.0, +989.50,1D
27/03/2009,01:01:50,   0.0,  5.9,  269, +4.0,  79.6,    0.6,   +7.3,   +8.5,  -10.0, +989.49,29
27/03/2009,01:02:10,   0.0,  4.5,  288, +4.0,  79.8,    0.4,   +7.3,   +8.4,  -10.0, +989.53,1C
27/03/2009,01:02:30,   0.0,  5.9,  314, +4.0,  79.8,    0.5,   +7.2,   +8.5,  -10.0, +989.42,18
27/03/2009,01:02:50,   0.0,  5.5,  288, +4.0,  79.9,    0.4,   +7.3,   +8.4,  -10.0, +989.47,25
27/03/2009,01:03:10,   0.0,  6.1,  255, +4.0,  79.9,    0.6,   +7.4,   +8.4,  -10.0, +989.44,19
27/03/2009,01:03:30,   0.0,  4.0,  283, +4.0,  80.0,    0.3,   +7.3,   +8.4,  -10.0, +989.46,06
27/03/2009,01:03:50,   0.0,  3.3,  252, +4.0,  80.1,    0.5,   +7.3,   +8.4,  -10.0, +989.48,0B
27/03/2009,01:04:10,   0.0,  6.1,  261, +4.0,  80.2,    0.4,   +7.3,   +8.4,  -10.0, +989.48,09
27/03/2009,01:04:30,   0.0,  5.5,  295, +4.0,  80.1,    0.4,   +7.4,   +8.4,  -10.0, +989.45,12
27/03/2009,01:04:50,   0.0,  6.6,  258, +4.0,  80.1,    0.4,   +7.3,   +8.4,  -10.0, +989.41,10
27/03/2009,01:05:10,   0.0,  4.3,  313, +4.0,  80.2,    0.5,   +7.3,   +8.4,  -10.0, +989.42,03
27/03/2009,01:05:30,   0.0,  5.5,  292, +4.0,  80.0,    0.4,   +7.3,   +8.4,  -10.0, +989.28,0F
27/03/2009,01:05:50,   0.0,  5.2,  282, +3.9,  79.5,    0.4,   +7.4,   +8.3,  -10.0, +989.41,1D
27/03/2009,01:06:10,   0.0,  3.3,  228, +4.0,  79.4,    0.5,   +7.3,   +8.4,  -10.0, +989.41,11
27/03/2009,01:06:30,   0.0,  2.9,  259, +3.9,  79.8,    0.6,   +7.2,   +8.5,  -10.0, +989.42,2A
27/03/2009,01:06:50,   0.0,  3.7,  251, +4.0,  80.0,    0.4,   +7.5,   +8.3,  -10.0, +989.37,0E
27/03/2009,01:07:10,   0.0,  4.6,  274, +3.9,  80.0,    0.3,   +7.5,   +8.3,  -10.0, +989.41,12
27/03/2009,01:07:30,   0.0,  7.1,  274, +3.9,  79.9,    0.5,   +7.4,   +8.5,  -10.0, +989.38,2C
27/03/2009,01:07:50,   0.0,  4.8,  272, +4.0,  79.6,    0.5,   +7.5,   +8.4,  -10.0, +989.36,23
27/03/2009,01:08:10,   0.0,  2.8,  261, +3.9,  79.6,    0.5,   +7.6,   +8.4,  -10.0, +989.35,24
27/03/2009,01:08:30,   0.0,  3.3,  287, +4.0,  79.6,    0.5,   +7.5,   +8.5,  -10.0, +989.42,20
27/03/2009,01:08:50,   0.0,  4.8,  298, +3.9,  79.6,    0.6,   +7.6,   +8.4,  -10.0, +989.44,35
27/03/2009,01:09:10,   0.0,  6.4,  281, +3.9,  79.3,    0.6,   +7.5,   +8.4,  -10.0, +989.34,23
27/03/2009,01:09:30,   0.0,  3.3,  250, +3.9,  79.4,    0.6,   +7.4,   +8.5,  -10.0, +989.33,1D
27/03/2009,01:09:50,   0.0,  4.2,  274, +3.9,  79.4,    0.4,   +7.4,   +8.5,  -10.0, +989.32,22
27/03/2009,01:10:10,   0.0,  3.1,  274, +3.9,  79.4,    0.5,   +7.4,   +8.5,  -10.0, +989.37,1A
27/03/2009,01:10:30,   0.0,  3.3,  265, +3.9,  79.5,    0.5,   +7.6,   +8.5,  -10.0, +989.35,1F
27/03/2009,01:10:50,   0.0,  5.9,  270, +3.9,  79.4,    0.6,   +7.4,   +8.5,  -10.0, +989.31,1F
27/03/2009,01:11:10,   0.0,  5.2,  266, +3.9,  79.3,    0.5,   +7.4,   +8.5,  -10.0, +989.34,1B
27/03/2009,01:11:30,   0.0,  5.3,  288, +3.9,  79.3,    0.6,   +7.5,   +8.4,  -10.0, +989.34,23
27/03/2009,01:11:50,   0.0,  4.9,  266, +3.9,  79.0,    0.5,   +7.5,   +8.5,  -10.0, +989.24,22
27/03/2009,01:12:10,   0.0,  4.7,  271, +3.9,  78.7,    0.5,   +7.5,   +8.4,  -10.0, +989.35,20
27/03/2009,01:12:30,   0.0,  4.8,  278, +3.9,  78.9,    0.5,   +7.6,   +8.4,  -10.0, +989.31,29
27/03/2009,01:12:50,   0.0,  3.2,  303, +3.9,  78.9,    0.5,   +7.5,   +8.5,  -10.0, +989.23,1A
27/03/2009,01:13:10,   0.0,  3.5,  281, +3.9,  78.7,    0.5,   +7.5,   +8.5,  -10.0, +989.32,1D
27/03/2009,01:13:30,   0.0,  6.0,  289, +3.9,  78.9,    0.5,   +7.6,   +8.4,  -10.0, +989.36,2B
27/03/2009,01:13:50,   0.0,  5.1,  287, +3.9,  78.9,    0.5,   +7.6,   +8.4,  -10.0, +989.29,2D
27/03/2009,01:14:10,   0.0,  3.9,  280, +3.9,  78.9,    0.5,   +7.5,   +8.4,  -10.0, +989.31,21
27/03/2009,01:14:30,   0.0,  4.1,  285, +3.9,  79.1,    0.3,   +7.5,   +8.5,  -10.0, +989.25,1C
27/03/2009,01:14:50,   0.0,  6.8,  292, +3.9,  79.0,    0.5,   +7.5,   +8.5,  -10.0, +989.28,29
27/03/2009,01:15:10,   0.0,  3.3,  264, +3.9,  78.8,    0.5,   +7.5,   +8.5,  -10.0, +989.24,20
27/03/2009,01:15:30,   0.0,  4.6,  269, +3.9,  78.9,    0.5,   +7.5,   +8.5,  -10.0, +989.28,30
27/03/2009,01:15:50,   0.0,  4.4,  286, +3.9,  78.7,    0.5,   +7.6,   +8.4,  -10.0, +989.32,28
27/03/2009,01:16:10,   0.0,  2.1,  264, +3.9,  78.7,    0.5,   +7.6,   +8.4,  -10.0, +989.28,21
27/03/2009,01:16:30,   0.0,  2.7,  282, +3.9,  78.8,    0.6,   +7.6,   +8.4,  -10.0, +989.29,2C
27/03/2009,01:16:50,   0.0,  4.1,  279, +3.9,  78.8,    0.4,   +7.6,   +8.4,  -10.0, +989.28,2D
27/03/2009,01:17:10,   0.0,  4.2,  283, +3.9,  78.7,    0.4,   +7.5,   +8.3,  -10.0, +989.31,1D
27/03/2009,01:17:30,   0.0,  3.4,  255, +3.9,  78.6,    0.2,   +7.6,   +8.4,  -10.0, +989.24,20
27/03/2009,01:17:50,   0.0,  2.8,  295, +3.9,  78.5,    0.2,   +7.6,   +8.4,  -10.0, +989.30,25
27/03/2009,01:18:10,   0.0,  2.9,  281, +3.9,  78.7,    0.3,   +7.5,   +8.4,  -10.0, +989.31,21
27/03/2009,01:18:30,   0.0,  2.4,  237, +3.9,  78.8,    0.3,   +7.5,   +8.4,  -10.0, +989.23,21
27/03/2009,01:18:50,   0.0,  2.5,  276, +3.9,  78.8,    0.3,   +7.4,   +8.5,  -10.0, +989.26,2A
27/03/2009,01:19:10,   0.0,  3.9,  315, +3.8,  78.8,    0.3,   +7.7,   +8.4,  -10.0, +989.25,26
27/03/2009,01:19:30,   0.0,  4.8,  281, +3.9,  78.6,    0.3,   +7.5,   +8.4,  -10.0, +989.24,26
27/03/2009,01:19:50,   0.0,  5.9,  303, +3.9,  78.4,    0.4,   +7.6,   +8.4,  -10.0, +989.23,24
27/03/2009,01:20:10,   0.0,  3.7,  269, +3.9,  78.3,    0.3,   +7.4,   +8.5,  -10.0, +989.23,1C
27/03/2009,01:20:30,   0.0,  3.1,  302, +3.9,  78.6,    0.4,   +7.5,   +8.4,  -10.0, +989.24,11
27/03/2009,01:20:50,   0.0,  2.9,  244, +3.9,  78.5,    0.3,   +7.6,   +8.3,  -10.0, +989.25,1E
27/03/2009,01:21:10,   0.0,  4.5,  275, +3.9,  78.4,    0.3,   +7.5,   +8.5,  -10.0, +989.26,1E
27/03/2009,01:21:30,   0.0,  5.3,  272, +3.9,  78.5,    0.3,   +7.5,   +8.4,  -10.0, +989.14,19
27/03/2009,01:21:50,   0.0,  6.5,  266, +3.9,  78.3,    0.3,   +7.5,   +8.4,  -10.0, +989.30,1D
27/03/2009,01:22:10,   0.0,  3.4,  265, +3.9,  78.2,    0.3,   +7.6,   +8.4,  -10.0, +989.23,17